Dewpoint
66 70 75 73 73 73 73 74 74 74 74 74 74 73 73 73 73 73 73 73 73 73 72 72 72 71 71 71 71 71 73 72 71 72 73 73 74 73 73 73 73 70 74
64 67 75 73 73 74 75 74 74 74 74 74 74 74 73 73 73 73 73 73 72 73 72 70 71 71 71 71 71 71 70 72 72 71 71 73 73 73 73 73 73 72 74
63 66 70 74 74 74 74 74 74 74 73 74 73 73 73 74 74 73 73 73 72 71 71 71 71 71 71 71 70 70 70 70 71 72 73 72 70 73 73 72 72 73 74
63 64 67 75 74 74 74 74 74 73 74 73 74 74 74 73 72 72 72 72 71 71 71 71 72 71 71 72 71 71 71 71 71 71 69 66 65 74 74 73 72 72 73
63 66 70 74 74 74 73 73 74 74 74 74 74 73 73 73 73 72 71 71 70 70 70 71 71 72 72 72 73 73 72 72 72 71 69 70 71 73 74 74 73 73 73
66 66 73 75 75 74 73 73 73 73 73 73 74 72 72 71 70 70 70 69 70 72 71 71 73 72 72 73 73 73 74 73 73 69 71 73 67 74 73 73 73 73 74
62 66 71 75 75 74 74 73 73 72 72 72 72 71 70 70 71 71 72 73 72 71 71 71 70 72 72 72 74 74 75 74 70 71 70 70 70 75 74 73 73 74 75
58 62 69 75 74 74 75 73 72 72 71 71 71 71 71 72 73 74 74 74 72 70 71 70 71 71 73 73 73 74 74 74 70 69 71 71 75 76 75 74 74 74 75
58 61 66 67 72 75 74 73 74 74 72 72 70 71 72 73 71 70 71 73 72 71 71 70 71 72 72 73 73 73 73 73 69 67 65 65 75 75 73 74 74 74 76
61 61 63 65 67 68 70 74 73 73 71 71 71 72 73 73 70 70 73 73 72 72 71 72 72 72 72 72 71 73 73 74 70 69 67 66 74 71 71 72 73 74 76
61 63 64 65 67 68 68 71 72 72 72 72 72 72 73 66 66 68 72 73 72 71 71 71 71 71 72 73 74 73 72 66 64 64 67 75 72 70 70 71 73 74 75
59 61 63 64 64 66 61 70 69 68 70 69 71 72 67 71 71 68 68 70 71 71 72 73 73 73 73 67 71 75 69 65 61 65 72 74 72 72 73 73 73 73 73
59 59 63 64 65 61 64 65 66 64 67 70 74 74 73 71 72 71 73 71 70 73 68 71 71 67 67 67 66 65 65 66 64 70 72 73 73 72 73 73 74 73 73
59 59 61 65 68 64 64 64 64 64 66 71 71 73 72 73 74 72 70 71 74 66 70 68 66 69 69 68 66 66 64 66 68 71 73 74 74 73 73 73 74 74 74
59 60 62 67 70 68 68 66 66 65 66 67 68 71 70 69 70 74 70 73 74 72 69 71 68 69 68 66 66 67 66 68 66 70 71 74 74 73 73 72 72 72 71
58 59 61 65 69 68 70 72 68 67 68 67 66 70 72 70 72 68 70 70 69 67 68 68 70 70 72 69 71 69 70 68 68 67 70 71 73 73 71 71 71 70 71
57 59 61 63 65 69 72 72 69 65 65 65 66 71 72 73 74 75 67 71 66 69 70 70 73 68 66 71 72 71 72 72 68 70 70 71 70 72 71 70 70 70 70
57 61 61 57 64 70 72 70 67 66 66 65 66 68 70 72 72 74 66 67 69 75 71 71 65 67 67 70 69 69 72 71 70 63 63 63 63 64 69 69 69 68 68
61 63 63 63 65 69 72 69 69 71 68 66 65 66 72 70 68 71 67 70 73 72 71 68 68 71 71 69 62 69 72 71 63 59 64 65 64 64 67 68 68 66 65
64 64 65 66 69 70 70 71 67 66 66 65 66 68 72 68 70 71 69 72 72 66 67 71 74 74 73 70 63 64 68 67 63 61 61 60 63 61 62 66 65 62 64
65 67 68 68 71 70 68 66 65 63 63 63 65 70 71 69 70 72 68 70 70 70 73 74 72 74 66 69 65 62 68 66 64 59 57 58 62 61 62 61 59 59 62
65 68 70 70 71 72 67 67 65 65 64 64 66 70 70 70 70 70 74 73 75 71 77 75 75 70 66 68 64 61 54 63 63 62 60 59 62 60 59 59 60 61 60
64 68 70 71 72 73 72 67 69 70 68 66 65 65 72 68 70 71 73 74 76 75 69 74 74 74 68 68 69 61 54 53 51 63 63 61 60 59 59 58 59 60 60
63 66 70 72 73 73 74 73 75 65 62 61 63 67 66 68 69 69 73 74 75 73 77 73 73 75 74 66 59 59 67 63 54 50 58 64 63 60 64 59 56 61 58
62 64 68 72 74 75 76 75 69 71 62 61 62 71 75 72 69 68 71 73 75 71 77 75 75 76 71 69 59 56 63 54 64 52 49 50 57 58 56 56 55 54 56
60 62 65 72 76 75 74 75 74 71 71 64 66 65 65 65 67 73 71 73 74 75 75 74 76 77 74 72 65 62 54 51 48 48 46 53 50 52 56 55 56 54 54
Lifted_Index
-3 -4 -5 -5 -5 -5 -6 -6 -6 -6 -6 -6 -6 -5 -5 -5 -5 -5 -5 -5 -5 -4 -4 -4 -3 -3 -3 -3 -3 -3 -4 -4 -4 -4 -5 -5 -5 -5 -5 -6 -5 -5 -5
-3 -4 -4 -5 -5 -5 -5 -6 -6 -6 -6 -6 -5 -5 -5 -5 -5 -5 -5 -5 -4 -4 -4 -3 -3 -3 -3 -3 -3 -3 -3 -4 -4 -4 -4 -5 -5 -5 -5 -5 -5 -5 -5
-3 -3 -4 -4 -5 -5 -5 -5 -5 -5 -5 -5 -5 -5 -5 -5 -5 -5 -5 -4 -4 -4 -4 -3 -4 -4 -4 -4 -3 -3 -3 -3 -4 -4 -4 -4 -4 -5 -5 -5 -5 -5 -5
-3 -3 -3 -4 -5 -5 -4 -4 -4 -4 -4 -5 -5 -5 -5 -5 -5 -4 -4 -4 -4 -3 -3 -4 -4 -4 -4 -4 -4 -4 -4 -4 -4 -4 -4 -4 -4 -5 -5 -5 -5 -5 -5
-3 -3 -4 -4 -4 -4 -4 -4 -4 -4 -4 -4 -5 -5 -5 -4 -4 -4 -3 -3 -3 -3 -3 -4 -4 -4 -4 -4 -4 -4 -4 -4 -4 -4 -4 -4 -4 -5 -5 -5 -5 -5 -5
-4 -4 -4 -5 -5 -4 -4 -3 -3 -4 -4 -4 -4 -4 -4 -4 -4 -3 -3 -3 -3 -3 -3 -3 -4 -4 -4 -4 -5 -5 -5 -4 -4 -4 -4 -4 -4 -5 -5 -5 -5 -5 -5
-3 -3 -4 -5 -5 -4 -4 -3 -3 -3 -4 -4 -4 -3 -3 -4 -4 -4 -4 -3 -3 -3 -3 -3 -3 -4 -4 -4 -5 -5 -5 -5 -4 -4 -4 -4 -5 -5 -5 -5 -5 -5 -6
-2 -2 -3 -4 -4 -4 -4 -3 -3 -3 -4 -3 -3 -3 -4 -4 -5 -4 -4 -4 -3 -3 -2 -2 -3 -3 -4 -4 -4 -5 -5 -4 -4 -4 -4 -4 -5 -5 -5 -5 -5 -6 -6
-1 -2 -2 -3 -3 -4 -4 -3 -4 -4 -4 -3 -3 -4 -4 -4 -4 -3 -3 -3 -3 -3 -2 -2 -3 -3 -3 -3 -4 -4 -4 -4 -4 -3 -3 -3 -4 -4 -4 -5 -5 -6 -6
-1 -1 -2 -2 -2 -3 -3 -3 -4 -4 -3 -3 -3 -4 -4 -4 -3 -2 -3 -3 -3 -3 -2 -2 -2 -2 -2 -3 -3 -3 -3 -3 -3 -3 -3 -3 -3 -3 -3 -4 -4 -5 -6
-1 -1 -2 -2 -2 -2 -2 -3 -3 -3 -3 -3 -3 -4 -4 -3 -3 -2 -2 -3 -3 -2 -2 -2 -2 -2 -2 -3 -3 -3 -3 -3 -3 -3 -3 -3 -3 -3 -3 -3 -4 -4 -5
-1 -1 -2 -2 -2 -2 -2 -2 -3 -3 -3 -3 -4 -4 -4 -3 -3 -3 -2 -2 -2 -2 -2 -2 -2 -2 -2 -3 -3 -3 -3 -2 -2 -3 -3 -3 -3 -3 -3 -3 -4 -4 -4
-0 -1 -1 -2 -1 -1 -1 -2 -2 -3 -3 -4 -4 -5 -4 -4 -4 -4 -3 -3 -3 -3 -3 -3 -2 -2 -3 -3 -3 -3 -3 -3 -3 -3 -3 -3 -3 -3 -4 -4 -4 -4 -4
1 0 -1 -1 -1 -1 -1 -2 -2 -2 -3 -4 -4 -4 -4 -4 -4 -4 -4 -4 -4 -3 -3 -3 -3 -3 -3 -3 -2 -2 -3 -3 -3 -3 -3 -3 -3 -4 -4 -4 -4 -4 -5
1 1 -0 -1 -2 -2 -2 -2 -2 -2 -2 -3 -4 -4 -4 -4 -4 -4 -4 -4 -4 -3 -3 -3 -3 -3 -3 -3 -3 -3 -3 -3 -3 -3 -3 -3 -3 -4 -4 -3 -3 -3 -4
2 1 0 -1 -1 -2 -2 -2 -2 -2 -2 -3 -3 -4 -4 -5 -5 -4 -4 -4 -3 -3 -3 -3 -3 -3 -3 -3 -3 -3 -3 -3 -3 -3 -3 -3 -3 -3 -3 -2 -2 -2 -2
2 2 1 0 -1 -2 -3 -3 -3 -2 -2 -3 -3 -4 -4 -5 -5 -4 -3 -3 -3 -3 -3 -3 -3 -4 -4 -4 -4 -4 -4 -3 -3 -2 -2 -2 -2 -2 -2 -1 -1 -1 -1
3 2 2 1 -0 -2 -3 -3 -3 -3 -2 -2 -3 -3 -4 -4 -4 -4 -3 -3 -4 -4 -4 -4 -4 -4 -4 -4 -4 -4 -4 -3 -2 -1 -1 -1 -1 -1 -1 -1 -0 0 0
2 2 1 1 -1 -2 -3 -3 -3 -3 -3 -2 -2 -3 -3 -4 -4 -4 -4 -4 -5 -5 -4 -4 -4 -5 -5 -4 -4 -4 -4 -3 -2 -1 -0 -0 -0 -0 -0 -0 1 1 2
1 1 0 -0 -1 -2 -2 -3 -3 -2 -2 -2 -2 -3 -4 -4 -4 -4 -4 -5 -5 -5 -5 -5 -5 -5 -5 -4 -3 -3 -3 -3 -1 -0 0 0 0 0 -0 0 1 2 2
-0 -0 -0 -1 -1 -2 -2 -2 -2 -2 -1 -1 -2 -3 -4 -4 -4 -4 -4 -5 -5 -5 -6 -6 -6 -6 -5 -4 -3 -3 -3 -3 -2 -1 0 0 0 0 0 1 2 2 2
-1 -1 -1 -1 -2 -2 -1 -1 -1 -1 -1 -1 -2 -3 -3 -3 -4 -4 -5 -5 -6 -6 -6 -6 -6 -6 -5 -4 -3 -2 -2 -2 -2 -1 -0 0 0 0 1 1 2 2 2
-1 -1 -2 -2 -2 -2 -2 -1 -1 -1 -1 -1 -2 -2 -3 -3 -4 -4 -5 -6 -6 -6 -6 -6 -6 -6 -5 -4 -3 -1 -1 -1 -0 -1 -1 -1 -0 0 1 1 2 2 2
-1 -1 -2 -3 -3 -3 -3 -2 -1 -1 -0 -0 -1 -2 -3 -3 -3 -4 -5 -6 -6 -6 -7 -7 -7 -7 -6 -4 -2 -1 -1 -0 1 1 -0 -1 -1 -0 0 1 2 3 3
-1 -1 -2 -3 -4 -4 -4 -3 -2 -1 -0 0 -1 -2 -3 -3 -3 -5 -5 -6 -6 -7 -7 -7 -7 -7 -6 -4 -2 -0 0 1 1 2 2 1 0 0 1 2 3 3 4
-0 -1 -2 -3 -4 -4 -4 -4 -2 -1 -0 -0 -1 -2 -2 -3 -4 -5 -6 -6 -7 -7 -8 -8 -8 -7 -7 -5 -2 -0 1 2 3 3 3 3 2 1 1 2 3 4 4